Location: Feydey
(46.3431°N, 7.0106°E)
Time: 15:26:45
(UTC+00:00)

ERS-1 Rocket - Pass Details

Date: 20 June 2021
Orbit: 752 x 758 km, 98.4° (Epoch: 03 August)

Event Time Altitude Azimuth Distance (km) Brightness Sun altitude
Exits shadow 22:04:08 13° 212° (SSW) 2,056 4.9 -17.3°
Maximum altitude 22:07:43 28° 265° (W) 1,400 4.5 -17.5°
Drops below altitude 10° 22:12:03 10° 325° (NW) 2,298 6.6 -17.8°
Sets 22:14:41 0° 337° (NNW) 3,228 8.0 -18.0°
